Location: *
(32.8667°N, 13.1833°E)
Time: 15:29:33
(UTC+00:00)

Mayak - Pass Details

Date: 18 July 2019
Orbit: 583 x 601 km, 97.6° (Epoch: 23 August)

Event Time Altitude Azimuth Distance (km) Brightness Sun altitude
Rises 22:23:47 0° 358° (N) 2,855 3.3 -34.9°
Reaches altitude 10° 22:26:11 10° 347° (NNW) 1,949 2.2 -35.0°
Enters shadow 22:27:37 18° 333° (NNW) 1,482 1.4 -35.1°
